Zurück zum Katalog

STARLINK-31412

AktivKommunikationVLEO
NORAD 59410·PAYLOAD·🇺🇸 United States

Gestartet Apr 5, 2024 von Cape Canaveral Space Force Station

Loading…

Nächste Überflüge (nächste 24 Stunden)

TLE

AktuellSource: CelesTrak SupGP

Epoche: Sep 14, 2026, 22:12 UTC

1 59410C 24064N   26257.92548611  .00069245  00000+0  25082-2 0  2574
2 59410  43.0002  67.4355 0001324 276.0935 216.2514 15.27542051    16

Verfolge STARLINK-31412 in Echtzeit mit AllMySat

Download on the App Store